Terminal Aerodrome Forecast
Issued by NWS

Home | Current Version | Previous Version | Text Only | Print | Product List | Glossary On
Versions: 1 2 3 4 5 6 7 8 9 10 11 12 13 14 15 16 17 18 19 20 21 22 23 24 25 26 27 28 29 30
000
FTUS43 KDTX 010800 AAA
TAFPTK
TAF AMD
KPTK 010807Z 0108/0206 VRB03KT 2SM BR OVC002
     FM011400 06005KT P6SM OVC008
     FM011900 10005KT P6SM BKN020
     FM020000 12003KT P6SM SCT022 BKN035=

USA.gov is the U.S. government's official web portal to all federal, state and local government web resources and services.